[[{"header":{"parameterUnit":"m.s-1","parameterCategory":1,"la1":30.2991,"la2":30.254,"lo1":-89.0895,"lo2":-89.0444,"dy":0.0017,"dx":0.0017,"nx":28,"ny":28,"refTime":"2023-07-24T09:00:00:Z","depth":0,"parameterNumber":2,"parameterNumberName":"U-component_of_WINDS"},"data":[0,0,0,0,0,0,0,0,0,0,0,0,0,0,0,0,0,0,0,0,0,0,0,0,0,0,0,0,0,0,0,0,0,0,0,0,0,0,0,0,0,0,0,0,0,0,0,0,0,0,0,0,0,0,0,0,0,0,1.0515,1.0516,0,1.061,1.0611,1.0612,1.066,1.066,1.066,1.066,1.076,1.0763,1.0765,0,0,0,0,0,0,0,0,0,0,0,0,0,1.0378,1.038,1.0514,1.0516,1.0517,1.0609,1.0611,1.0612,1.066,1.066,1.066,1.066,1.0759,1.0762,1.0766,0,0,0,0,0,0,0,0,0,0,0,0,0,1.0452,1.0381,1.0514,1.0552,1.0556,1.0609,1.0611,1.0612,1.066,1.066,1.066,1.066,1.0758,1.0762,1.0766,1.0789,0,0,1.0778,1.078,0,0,0,0,0,0,0,0,1.0447,1.0457,1.0545,1.055,1.0554,1.0623,1.0599,1.0672,1.066,1.0621,1.066,1.066,1.0715,1.0722,1.074,1.0794,1.0798,1.0778,1.0781,1.0782,1.0784,0,0,0,0,0,0,0,1.0442,1.0453,1.0552,1.0547,1.0552,1.0565,1.0576,1.0613,1.0666,1.0624,1.0628,1.0638,1.0717,1.0736,1.0743,1.08,1.0778,1.0782,1.0784,1.0786,1.0879,1.0879,0,0,0,0,0,0,1.0431,1.0448,1.0549,1.0555,1.05,1.0568,1.0579,1.0601,1.0666,1.0676,1.0638,1.064,1.0729,1.0738,1.0746,1.0779,1.0782,1.0786,1.0788,1.0879,1.0879,1.0879,0,0,0,0,0,0,1.0428,1.0439,1.0545,1.0503,1.0517,1.057,1.0594,1.0603,1.0622,1.0677,1.0687,1.0648,1.073,1.0741,1.0778,1.0783,1.0788,1.0791,1.0879,1.0879,1.0879,1.0843,0,0,0,0,0,0,1.0423,1.0438,1.0446,1.0502,1.0519,1.0575,1.0594,1.0605,1.0628,1.0632,1.0688,1.0697,1.0731,1.0772,1.0782,1.0788,1.0794,1.0878,1.0879,1.0879,1.0844,1.0842,1.084,0,0,0,0,0,1.0418,1.0432,1.0446,1.0458,1.0531,1.0575,1.0584,1.0621,1.0628,1.0638,1.0673,1.0696,1.0781,1.0776,1.0787,1.0795,1.0878,1.0879,1.0879,1.0845,1.0842,1.084,0,0,0,0,0,0,1.0376,1.044,1.0457,1.0489,1.0526,1.0583,1.0596,1.0617,1.0654,1.0656,1.0701,1.0713,1.0747,1.0775,1.0768,1.0821,1.0832,1.0834,1.0802,1.08,1.0798,1.079,1.0798,0,0,0,0,0,1.037,1.0399,1.0455,1.0478,1.0496,1.0542,1.0563,1.0588,1.0629,1.0645,1.0683,1.0722,1.0758,1.078,1.0816,1.0848,1.0862,1.0859,1.0857,1.0855,1.0857,1.0877,1.0877,1.088,1.088,1.088,0,0,1.0359,1.0398,1.0414,1.0471,1.0502,1.0533,1.0555,1.0586,1.061,1.065,1.0687,1.0717,1.0764,1.0799,1.0816,1.0823,1.0859,1.0855,1.0853,1.0856,1.0877,1.0877,1.0877,1.088,1.088,1.088,0,0,1.0354,1.0386,1.0409,1.0441,1.0488,1.0519,1.0525,1.0579,1.0599,1.0638,1.0669,1.0698,1.0758,1.079,1.0815,1.0823,1.0846,1.0834,1.0823,1.0842,1.0842,1.0842,1.0846,1.0847,1.0835,1.0835,1.0835,0,1.0334,1.038,1.0419,1.0448,1.0473,1.051,1.0535,1.0564,1.0621,1.0637,1.0644,1.0721,1.0755,1.0799,1.0801,1.0819,1.0828,1.0827,1.0839,1.0839,1.084,1.0844,1.0845,1.0834,1.0834,1.0834,1.0834,0,1.0354,1.0386,1.0399,1.0452,1.0479,1.0506,1.055,1.0572,1.0595,1.0626,1.0665,1.0708,1.0753,1.0766,1.0789,1.0813,1.0816,1.083,1.0842,1.0837,1.0842,1.0844,1.0831,1.0832,1.0832,1.0833,0,0,1.0324,1.0399,1.0404,1.0429,1.0484,1.051,1.0539,1.0583,1.0602,1.064,1.0666,1.0717,1.0731,1.0758,1.0786,1.0803,1.0808,1.0815,1.0817,1.0813,1.0838,1.0827,1.0828,1.0823,1.0823,1.0824,1.0834,0,1.0327,1.038,1.0417,1.0456,1.0487,1.0523,1.0549,1.0586,1.0616,1.0647,1.0681,1.0716,1.0731,1.0748,1.0767,1.0803,1.0813,1.0803,1.0849,1.085,1.0836,1.083,1.0819,1.0826,1.0836,1.0836,1.0837,0,1.0338,1.0375,1.0417,1.047,1.0484,1.0506,1.055,1.0579,1.0623,1.0644,1.0674,1.0703,1.0737,1.0745,1.0793,1.0785,1.0807,1.0827,1.0829,1.0835,1.0843,1.0836,1.083,1.0831,1.084,1.084,1.0839,0,1.0312,1.0373,1.0406,1.0426,1.0489,1.0504,1.0531,1.0575,1.0599,1.0638,1.0654,1.0697,1.072,1.0753,1.0792,1.0795,1.0836,1.0848,1.0856,1.0854,1.0863,1.0862,1.0859,1.0876,1.0876,1.0876,1.0875,0,1.0312,1.0337,1.0395,1.0416,1.0445,1.0487,1.0515,1.0545,1.0584,1.0612,1.0647,1.0673,1.0723,1.0755,1.0787,1.0822,1.0832,1.0851,1.0859,1.0848,1.0846,1.0863,1.0863,1.0876,1.0876,1.0876,1.0876,0,1.0289,1.0329,1.0368,1.0424,1.0439,1.0458,1.0507,1.0529,1.0561,1.0596,1.0606,1.0657,1.0697,1.074,1.0794,1.0815,1.0849,1.0861,1.0834,1.0839,1.0844,1.0843,1.0853,1.0857,1.0869,1.0869,1.0869,0,1.0286,1.0305,1.0364,1.0385,1.0411,1.0444,1.0469,1.0512,1.0537,1.0589,1.0605,1.0647,1.0683,1.0746,1.0788,1.083,1.0843,1.0844,1.085,1.0838,1.0844,1.0842,1.0845,1.0842,1.0841,1.0841,1.0841,0,1.0277,1.0296,1.033,1.0372,1.0401,1.0436,1.0472,1.0487,1.0538,1.0564,1.0605,1.0633,1.0689,1.0731,1.0779,1.0808,1.0833,1.0839,1.0843,1.0832,1.0816,1.0825,1.0829,1.0838,1.0838,1.0839,1.0839,1.0839,1.0264,1.0283,1.0328,1.0365,1.0397,1.0431,1.0454,1.0489,1.0524,1.0572,1.0596,1.0637,1.0682,1.0748,1.0777,1.0811,1.0818,1.0824,1.0825,1.0826,1.0824,1.081,1.0819,1.082,1.082,1.082,1.082,0,1.0257,1.0287,1.0321,1.0371,1.0401,1.0422,1.0463,1.0487,1.0523,1.0562,1.0597,1.0645,1.0686,1.0732,1.0777,1.0795,1.0808,1.0805,1.0804,1.0811,1.0814,1.0806,1.0794,1.0794,1.0794,1.0794,1.0794,1.0794,1.0257,1.0291,1.0316,1.0367,1.0398,1.0438,1.046,1.0492,1.0524,1.0575,1.0609,1.0639,1.0681,1.0729,1.0769,1.0781,1.0796,1.079,1.0806,1.0809,1.0811,1.0812,1.0805,1.0793,1.0793,1.0801,1.0801,1.0801]},{"header":{"parameterUnit":"m.s-1","parameterCategory":1,"la1":30.2991,"la2":30.254,"lo1":-89.0895,"lo2":-89.0444,"dy":0.0017,"dx":0.0017,"nx":28,"ny":28,"refTime":"2023-07-24T09:00:00:Z","depth":0,"parameterNumber":3,"parameterNumberName":"V-component_of_WINDS"},"data":[0,0,0,0,0,0,0,0,0,0,0,0,0,0,0,0,0,0,0,0,0,0,0,0,0,0,0,0,0,0,0,0,0,0,0,0,0,0,0,0,0,0,0,0,0,0,0,0,0,0,0,0,0,0,0,0,0,0,-0.6968,-0.6968,0,-0.6969,-0.6969,-0.6969,-0.6951,-0.695,-0.695,-0.6949,-0.6951,-0.6952,-0.6952,0,0,0,0,0,0,0,0,0,0,0,0,0,-0.6952,-0.6953,-0.6968,-0.6968,-0.6968,-0.6969,-0.6969,-0.6969,-0.6951,-0.695,-0.695,-0.6949,-0.6951,-0.6952,-0.6953,0,0,0,0,0,0,0,0,0,0,0,0,0,-0.6957,-0.6953,-0.6968,-0.6959,-0.6958,-0.6969,-0.6969,-0.6969,-0.6951,-0.695,-0.695,-0.6949,-0.6951,-0.6952,-0.6953,-0.6972,0,0,-0.6955,-0.6955,0,0,0,0,0,0,0,0,-0.6957,-0.6957,-0.696,-0.696,-0.6959,-0.6959,-0.6964,-0.697,-0.6951,-0.6954,-0.6949,-0.6949,-0.6955,-0.6955,-0.6957,-0.6972,-0.6972,-0.6955,-0.6955,-0.6956,-0.6956,0,0,0,0,0,0,0,-0.6956,-0.6957,-0.6968,-0.696,-0.6959,-0.6956,-0.6955,-0.6965,-0.6958,-0.6954,-0.6952,-0.6953,-0.6954,-0.6956,-0.6957,-0.6972,-0.6955,-0.6956,-0.6956,-0.6956,-0.7005,-0.7006,0,0,0,0,0,0,-0.6957,-0.6957,-0.6968,-0.6968,-0.6956,-0.6957,-0.6956,-0.696,-0.6958,-0.6957,-0.6953,-0.6952,-0.6955,-0.6956,-0.6957,-0.698,-0.6956,-0.6956,-0.6957,-0.7004,-0.7005,-0.7006,0,0,0,0,0,0,-0.6957,-0.6958,-0.6968,-0.6962,-0.6963,-0.6958,-0.6961,-0.696,-0.6962,-0.6958,-0.6957,-0.6956,-0.6955,-0.6956,-0.6969,-0.698,-0.6957,-0.6958,-0.7003,-0.7004,-0.7006,-0.7027,0,0,0,0,0,0,-0.6956,-0.6958,-0.6965,-0.6963,-0.6964,-0.6979,-0.6962,-0.6961,-0.6963,-0.6961,-0.6961,-0.696,-0.6954,-0.6968,-0.6969,-0.6981,-0.6958,-0.7002,-0.7004,-0.7005,-0.7025,-0.7029,-0.7032,0,0,0,0,0,-0.6956,-0.6971,-0.6965,-0.6967,-0.6972,-0.698,-0.6981,-0.6974,-0.6964,-0.6971,-0.6969,-0.696,-0.6979,-0.6969,-0.6971,-0.6983,-0.7001,-0.7003,-0.7005,-0.7024,-0.7028,-0.7032,0,0,0,0,0,0,-0.6974,-0.697,-0.6964,-0.6978,-0.698,-0.6977,-0.6986,-0.6978,-0.6982,-0.698,-0.6972,-0.6972,-0.6987,-0.6986,-0.6975,-0.7002,-0.6988,-0.6991,-0.7002,-0.7006,-0.7009,-0.7009,-0.6959,0,0,0,0,0,-0.698,-0.6986,-0.6983,-0.6996,-0.6997,-0.6991,-0.6994,-0.6989,-0.699,-0.6991,-0.6989,-0.6991,-0.6997,-0.7002,-0.7007,-0.7025,-0.7025,-0.7034,-0.7038,-0.704,-0.7043,-0.7054,-0.7058,-0.7012,-0.7012,-0.7012,0,0,-0.6992,-0.699,-0.6995,-0.7,-0.7,-0.7008,-0.6992,-0.7,-0.7006,-0.6992,-0.7004,-0.7003,-0.7005,-0.7021,-0.7028,-0.7021,-0.7056,-0.7043,-0.7045,-0.7046,-0.7056,-0.706,-0.7064,-0.7013,-0.7013,-0.7013,0,0,-0.7018,-0.7017,-0.7028,-0.7029,-0.703,-0.7026,-0.7029,-0.7028,-0.7027,-0.7039,-0.7029,-0.7036,-0.7047,-0.7049,-0.7052,-0.708,-0.7072,-0.7082,-0.7099,-0.711,-0.7114,-0.7117,-0.7128,-0.7132,-0.7084,-0.7084,-0.7084,0,-0.7032,-0.7043,-0.7035,-0.7045,-0.7048,-0.7035,-0.7048,-0.7049,-0.7052,-0.7054,-0.7047,-0.7061,-0.7061,-0.7078,-0.7085,-0.7087,-0.7091,-0.7082,-0.7114,-0.7117,-0.712,-0.713,-0.7135,-0.7085,-0.7085,-0.7085,-0.7085,0,-0.7062,-0.707,-0.7079,-0.7082,-0.7086,-0.7097,-0.7092,-0.7097,-0.7091,-0.7089,-0.7102,-0.7102,-0.7108,-0.7112,-0.7106,-0.7128,-0.7124,-0.7115,-0.7101,-0.7126,-0.7135,-0.7139,-0.7087,-0.7087,-0.7086,-0.7086,0,0,-0.7099,-0.7098,-0.7102,-0.7104,-0.7105,-0.7111,-0.7122,-0.7127,-0.7133,-0.7135,-0.7145,-0.7155,-0.7147,-0.715,-0.7145,-0.7154,-0.7179,-0.7145,-0.7145,-0.7152,-0.7204,-0.7211,-0.7216,-0.7173,-0.7174,-0.7175,-0.7204,0,-0.7125,-0.7143,-0.7137,-0.7155,-0.7163,-0.7152,-0.7162,-0.7164,-0.7163,-0.717,-0.7168,-0.7176,-0.7164,-0.7166,-0.7175,-0.7174,-0.7189,-0.7171,-0.7183,-0.7184,-0.7183,-0.7221,-0.7228,-0.7256,-0.7208,-0.7209,-0.7209,0,-0.7157,-0.7161,-0.7181,-0.7182,-0.7185,-0.7193,-0.7199,-0.7205,-0.7208,-0.7206,-0.721,-0.7204,-0.7216,-0.7202,-0.7219,-0.7207,-0.7211,-0.7212,-0.7213,-0.7214,-0.7198,-0.7224,-0.7265,-0.7269,-0.7215,-0.7214,-0.7214,0,-0.7183,-0.7194,-0.7207,-0.7209,-0.721,-0.7217,-0.7217,-0.7219,-0.7224,-0.7229,-0.7232,-0.7238,-0.7242,-0.7248,-0.7244,-0.7234,-0.7262,-0.7247,-0.7261,-0.7262,-0.7268,-0.7268,-0.7311,-0.727,-0.727,-0.727,-0.727,0,-0.7213,-0.7225,-0.7219,-0.7227,-0.7242,-0.7235,-0.725,-0.7249,-0.7252,-0.726,-0.7251,-0.726,-0.7254,-0.7262,-0.7259,-0.7274,-0.7276,-0.7275,-0.7275,-0.7277,-0.7277,-0.728,-0.7278,-0.7271,-0.7271,-0.727,-0.727,0,-0.7244,-0.724,-0.7255,-0.7255,-0.7255,-0.7266,-0.7266,-0.7274,-0.7272,-0.7284,-0.7286,-0.7284,-0.7293,-0.729,-0.73,-0.7298,-0.7317,-0.7313,-0.7316,-0.7316,-0.7331,-0.733,-0.7378,-0.7384,-0.7338,-0.7339,-0.7339,0,-0.7264,-0.7273,-0.7275,-0.728,-0.7281,-0.729,-0.7294,-0.7289,-0.7294,-0.7299,-0.7307,-0.7315,-0.7322,-0.7338,-0.7338,-0.7346,-0.7343,-0.7359,-0.7344,-0.7346,-0.7344,-0.7344,-0.7345,-0.7362,-0.7363,-0.7363,-0.7363,0,-0.7299,-0.7297,-0.7304,-0.731,-0.7316,-0.7321,-0.7326,-0.7331,-0.7325,-0.7332,-0.7342,-0.7347,-0.7358,-0.7367,-0.7375,-0.7376,-0.7369,-0.7368,-0.7372,-0.7374,-0.7376,-0.7376,-0.7325,-0.7367,-0.7367,-0.7366,-0.7366,-0.7366,-0.7326,-0.7334,-0.7337,-0.7345,-0.7348,-0.7352,-0.7361,-0.736,-0.7368,-0.7376,-0.7373,-0.7384,-0.7388,-0.7397,-0.74,-0.741,-0.7404,-0.7409,-0.741,-0.7412,-0.7414,-0.7374,-0.7411,-0.7411,-0.7411,-0.7411,-0.7411,0,-0.7361,-0.7363,-0.737,-0.7377,-0.7384,-0.7377,-0.7382,-0.7388,-0.7398,-0.7402,-0.7409,-0.7421,-0.7431,-0.7431,-0.744,-0.7448,-0.7445,-0.745,-0.745,-0.7451,-0.7419,-0.7415,-0.7453,-0.7453,-0.7453,-0.7453,-0.7453,-0.7453,-0.7381,-0.7395,-0.7394,-0.741,-0.7412,-0.7423,-0.7426,-0.7431,-0.7434,-0.7448,-0.7456,-0.7456,-0.7459,-0.7468,-0.7477,-0.7477,-0.7481,-0.7488,-0.7487,-0.7457,-0.7453,-0.7449,-0.7445,-0.7489,-0.7489,-0.7518,-0.7518,-0.7518]}]]